SL-14 DEB

Satellite information

Favourite Embed

Satellite Type and Status

DEBRISIN ORBIT

Key statistics

Satellite SL-14 DEB at a glance.

Uptime

13942

Days in orbit

Revolutions

≈ 14.0

Per day

Orbit

LEO

Low Earth Orbit

Inclination

82.4

Latest

Satellite identification and parameters

Extended collection of information and parameters for SL-14 DEB.

Object identification

Identified? True

Debris? True

Object name: SL-14 DEB

International designator: 1987-068AF

Object number (NORAD): 25204

Object ID (CCSDS): 25204

Country: COMMONWEALTH OF INDEPENDENT STATES (CIS)

Current information (Y/N): Y

RCS size: SMALL

Orbital parameters

Period: 102.564 minutes

Inclination: 82.4292 deg

SMA: 7258.09 km

Apoapsis: 957.76 km

Periapsis: 802.15 km

RAAN: 4.4569 deg

Eccentricy: 0.0107198

Argument of periapsis: 181.804 deg

Mean anomaly: 307.4472 deg

Mean motion: 14.04006909 rev/day

Mean motion (dot): 0.00005661 rev/day2

B* drag term: 0.0033938465 1/REarth

Two-line elements (TLE)

Creation date: Oct. 19, 2025, 2:20 a.m.

Reference frame: TEME

Reference center: EARTH

Epoch: Oct. 18, 2025, 4:59 p.m. UTC

TLE line 0: 0 SL-14 DEB

TLE line 1: 1 25204U 87068AF 25291.70813319 .00005661 00000-0 33938-2 0 9999

TLE line 2: 2 25204 82.4292 4.4569 0107198 181.8040 307.4472 14.04006909396736

Live tracking on map

Real-time ground track for satellite SL-14 DEB.

In-orbit conjunctions

A list of the most updated potential collisions computed for object SL-14 DEB.

Target Orbit TCA Probability of collision Miss distance Type
SL-8 R/B LEO 2024-10-08 12:01:43 0.0005333437 216.0 (m) ROCKET BODY
COSMOS 2026 LEO 2024-08-15 02:51:17 0.0002251425 284.0 (m) PAYLOAD
FENGYUN 1C DEB SSO 2024-06-23 17:17:35 0.0005546161 80.0 (m) DEBRIS

Associated space launch

Second generation soviet meteorological satellite

SL-14 DEB was lifted into orbit during the mission ‘Tsiklon-3 | Meteor-2 16’, on board a Tsiklon-3 space rocket.

The launch took place on Aug. 18, 1987, 2:27 a.m. from 32/1.

For more information about the launch, click the button.

Launch to space Tsiklon-3 | Meteor-2 16
Tsiklon-3 | Meteor-2 16

Agency: N/A

Status: Launch Successful

Launch date: Aug. 18, 1987, 2:27 a.m. UTC

Rocket: Tsiklon-3

Launch pad: 32/1

Location: Plesetsk Cosmodrome, Russian Federation

...

Latest news about this satellite

There are no fresh news available about this satellite. Check back as we update our databases every day.


Newsletter sign-up

Weekly statistics, charts and insights to help you stay on top of the space industry.